パンスターズ彗星

483P/PanSTARRS (2005)

English version
Home page
Updated on April 9, 2024

---------------------------------------------------------------------

・ プロフィール

・ 軌道要素

P/2016 J1-A (PANSTARRS)
                    Epoch = 2005 Mar. 11.0 TT
     T = 2005 Mar. 15.86557 TT        Peri. =  45.59805
     e = 0.2359634                    Node  = 200.37541 2000.0
     q = 2.4153410 AU                 Incl. =  14.35626
       a =  3.1612896 AU   n = 0.17535076   P =   5.62 years

P/2016 J1-B (PANSTARRS)
                    Epoch = 2005 Mar. 11.0 TT
     T = 2005 Mar. 15.74615 TT        Peri. =  45.57086
     e = 0.2359512                    Node  = 200.37484 2000.0
     q = 2.4154351 AU                 Incl. =  14.35742
       a =  3.1613623 AU   n = 0.17534471   P =   5.62 years

・ 光度変化

        m1 = 16.5 + 5 logΔ + 10.0 log r

---------------------------------------------------------------------

軌道要素は、CBET 5367に掲載されたものです。
光度グラフはComet for Windowsで作成したものです。

---------------------------------------------------------------------

Copyright(C) Seiichi Yoshida (comet@aerith.net). All rights reserved.